Location: Baix
(44.7118°N, 4.7648°E)
Time: 12:22:27
(UTC+00:00)

Vanguard 2 Rocket - Pass Details

Date: 02 December 2020
Orbit: 554 x 3325 km, 32.9° (Epoch: 23 January)

Event Time Altitude Azimuth Distance (km) Brightness Sun altitude
Rises 03:18:37 0° 181° (S) 6,197 11.1 -38.5°
Reaches altitude 10° 03:25:00 10° 163° (SSE) 5,655 11.0 -37.3°
Maximum altitude 03:34:22 17° 131° (SE) 5,550 11.2 -35.7°
Drops below altitude 10° 03:44:33 10° 100° (E) 6,286 11.9 -33.9°
Sets 03:52:14 0° 84° (E) 7,215 12.6 -32.5°
